DW4611 Weather Reports


Display with metric or nautical units.
time (UTC)temp
F
wind
direction
speed
MPH
gust
MPH
rain 1hr
in
rain 24hr
in
rain mn
in
humidity
%
barometer
mb
20260507234531 55 323 0.0 0.0 0.00 0.00 0.00 80 1012.7
20260507233026 55 323 0.0 0.0 0.00 0.00 0.00 79 1012.7
20260507231520 56 323 0.0 0.0 0.00 0.00 0.00 79 1012.6
20260507230018 56 323 1.0 3.0 0.00 0.00 0.00 79 1012.5
20260507224522 56 323 1.0 4.0 0.00 0.00 0.00 79 1012.5
20260507223017 56 335 1.0 2.0 0.00 0.00 0.00 80 1012.5
20260507221517 56 335 1.0 4.0 0.00 0.00 0.00 80 1012.4
20260507220012 56 335 2.0 4.0 0.00 0.00 0.00 81 1012.3
20260507214519 56 300 0.0 4.0 0.00 0.00 0.00 81 1012.3
20260507213012 56 128 0.0 1.0 0.00 0.00 0.00 81 1012.3
20260507211511 57 88 1.0 5.0 0.00 0.00 0.00 79 1012.1
20260507210008 58 162 0.0 2.0 0.00 0.00 0.00 77 1011.9
20260507204508 58 316 1.0 2.0 0.00 0.00 0.00 76 1011.8
20260507203008 58 82 0.0 1.0 0.00 0.00 0.00 75 1011.7
20260507201512 58 82 0.0 3.0 0.00 0.00 0.00 74 1011.6
20260507200007 59 82 0.0 1.0 0.00 0.00 0.00 74 1011.7
20260507194506 59 82 0.0 4.0 0.00 0.00 0.00 72 1011.5
20260507193005 59 105 1.0 5.0 0.00 0.00 0.00 72 1011.1
20260507191507 60 90 1.0 4.0 0.00 0.00 0.00 70 1010.8
20260507190005 60 82 1.0 3.0 0.00 0.00 0.00 68 1010.6
20260507184503 61 128 2.0 6.0 0.00 0.00 0.00 67 1010.5
20260507183003 62 140 0.0 5.0 0.00 0.00 0.00 66 1010.4
20260507181502 63 140 0.0 0.0 0.00 0.00 0.00 65 1010.2
20260507180001 64 140 0.0 2.0 0.00 0.00 0.00 64 1010.1
20260507174503 65 140 1.0 4.0 0.00 0.00 0.00 64 1010.0
20260507173100 66 159 2.0 5.0 0.00 0.00 0.00 63 1009.9
20260507171621 66 157 2.0 6.0 0.00 0.00 0.00 60 1009.9
20260507164558 68 130 4.0 8.0 0.00 0.00 0.00 56 1009.7
20260507163058 69 147 4.0 8.0 0.00 0.00 0.00 57 1009.7
20260507161558 69 134 5.0 10.0 0.00 0.00 0.00 55 1009.6
20260507160115 69 145 5.0 10.0 0.00 0.00 0.00 56 1009.6
20260507154555 69 133 6.0 9.0 0.00 0.01 0.00 57 1009.6
20260507153053 69 142 5.0 10.0 0.00 0.01 0.00 56 1009.6
20260507151558 69 134 5.0 11.0 0.00 0.01 0.00 55 1009.7
20260507150052 70 142 5.0 13.0 0.00 0.01 0.00 55 1009.8
20260507144551 70 161 5.0 11.0 0.00 0.01 0.00 58 1009.8
20260507143054 68 124 6.0 14.0 0.00 0.01 0.00 57 1010.0
20260507141548 67 163 4.0 12.0 0.00 0.01 0.00 59 1010.0
20260507140057 68 111 7.0 13.0 0.00 0.01 0.00 55 1010.0
20260507134547 70 175 9.0 15.0 0.00 0.01 0.00 55 1010.2
20260507133046 70 142 7.0 13.0 0.00 0.01 0.00 55 1010.3
20260507131609 70 171 6.0 14.0 0.00 0.01 0.00 60 1010.4
20260507130042 69 165 6.0 11.0 0.00 0.01 0.00 60 1010.5
20260507124550 68 156 8.0 14.0 0.00 0.01 0.00 59 1010.7
20260507123044 68 162 8.0 12.0 0.00 0.01 0.00 56 1010.7
20260507121541 67 173 7.0 14.0 0.00 0.01 0.00 62 1010.8
20260507120042 66 119 6.0 12.0 0.00 0.01 0.00 60 1011.0
20260507114538 68 148 7.0 14.0 0.00 0.01 0.00 57 1011.1
20260507113101 69 136 7.0 16.0 0.00 0.01 0.00 60 1011.1
20260507111534 68 126 8.0 15.0 0.00 0.01 0.00 58 1011.2
20260507110038 68 155 9.0 14.0 0.00 0.01 0.00 58 1011.4
20260507104532 68 134 7.0 12.0 0.00 0.01 0.00 59 1011.4
20260507103028 67 171 7.0 12.0 0.00 0.01 0.00 63 1011.6
20260507101530 66 137 8.0 13.0 0.00 0.01 0.00 61 1011.7
20260507100038 66 147 5.0 13.0 0.00 0.01 0.00 64 1011.8
20260507094523 66 111 5.0 11.0 0.00 0.30 0.00 65 1011.9
20260507093027 66 161 8.0 14.0 0.00 0.30 0.00 65 1011.9
20260507091521 65 154 6.0 13.0 0.00 0.30 0.00 66 1011.8
20260507090017 64 109 6.0 12.0 0.00 0.30 0.00 66 1011.8
20260507084535 64 134 4.0 10.0 0.00 0.98 0.00 65 1011.8
20260507083020 63 112 5.0 10.0 0.00 0.98 0.00 67 1011.8
20260507081507 61 139 3.0 8.0 0.00 0.98 0.00 63 1011.9
20260507080003 59 279 0.0 4.0 0.00 0.98 0.00 63 1011.9
20260507074600 58 243 1.0 4.0 0.00 1.64 0.00 61 1011.8
20260507073059 57 307 2.0 6.0 0.00 1.64 0.00 64 1011.9
20260507071554 56 13 1.0 6.0 0.00 1.64 0.00 65 1011.9
20260507064547 53 344 3.0 6.0 0.00 1.91 0.00 70 1011.9
20260507063050 50 355 1.0 4.0 0.00 1.91 0.00 78 1011.8
20260507061542 48 291 2.0 4.0 0.00 1.91 0.00 79 1011.8
20260507060043 48 327 2.0 7.0 0.00 1.91 0.00 79 1011.7
20260507054541 48 321 3.0 6.0 0.00 2.06 0.00 79 1011.6
20260507053038 48 309 4.0 8.0 0.00 2.06 0.00 80 1011.5
20260507051534 47 324 2.0 4.0 0.00 2.06 0.00 81 1011.4
20260507050052 47 299 2.0 5.0 0.00 2.06 0.00 81 1011.2
20260507044536 47 345 2.0 4.0 0.00 2.20 0.00 81 1011.1
20260507043026 47 299 1.0 5.0 0.00 2.20 0.00 81 1010.8
20260507041526 47 350 0.0 4.0 0.00 2.20 0.00 80 1010.6
20260507040024 47 35 1.0 3.0 0.00 2.20 0.00 81 1010.5
20260507034620 48 285 0.0 2.0 0.00 2.21 0.00 80 1010.5
20260507033029 48 355 0.0 4.0 0.00 2.21 0.00 80 1010.4
20260507031518 49 317 4.0 7.0 0.00 2.21 0.00 80 1010.4
20260507030016 49 351 4.0 7.0 0.00 2.21 0.00 80 1010.4
20260507024518 49 333 3.0 6.0 0.00 2.21 0.00 80 1010.3
20260507023014 49 319 3.0 6.0 0.00 2.21 0.00 81 1010.3
20260507021519 49 336 1.0 4.0 0.00 2.21 0.00 81 1010.3
20260507020020 49 317 2.0 5.0 0.00 2.21 0.00 82 1010.3
20260507014507 49 271 1.0 4.0 0.00 2.23 0.00 81 1010.2
20260507013008 50 279 1.0 3.0 0.00 2.23 0.00 80 1010.2
20260507011513 50 307 2.0 4.0 0.00 2.23 0.00 81 1010.2
20260507004600 51 317 3.0 6.0 0.00 2.23 0.00 78 1010.1
20260507003059 51 309 3.0 5.0 0.00 2.23 0.00 79 1010.0
20260507001605 51 318 3.0 5.0 0.00 2.23 0.00 79 1009.9
20260507000055 51 232 0.0 6.0 0.00 2.23 0.00 79 1009.8